BLOCK DM-SL R/B, 44904

Orbit data source: Space-Track

BLOCK DM-SL R/B, 44904 is space debris in GEO originally from a launch on Tue, 24 Dec 2019 UTC launched from the Tyuratam Missile And Space Complex (TTMTR). Debris objects in space refer to the collection of defunct objects orbiting the Earth. Examples of debris include non-operational satellites, rocket bodies, and fragments generated from explosions, collisions, or faulty payload assembly.

Loading next visibility...
Identifier
44904, 2019-095B
Orbit
GEO
Last TLE update
2 days ago
Origin
Manufacturer
RKKE
Mission
Spacecraft
Bus & Motor
BLOK DM2, 11D58M
Mass
2,440 kg wet, 2,440 kg dry
Launch date (UTC)
2019-12-24 (6 years ago)
Launch vehicle
Unknown
Launch site
Tyuratam Missile And Space Complex (TTMTR)
Object type
Payload
Rocket body
Debris
Shape & HBR
Cyl, 7.1 m
Radar Cross Section
26.008 m², Large (>1 m²)

Expand to show TLE details & history

TLE from 2 days ago
0 BLOCK DM-SL R/B
1 44904U 19095B   25180.81944287 -.00000117  00000-0  00000-0 0  9994
2 44904   4.4571  78.1258 0069579 263.8686  95.1420  1.02972017 20765
Epoch: 2025-06-29T19:39Z
TLE epoch observation values (Epoch: 2025-06-29T19:39:59.863Z)
Latitude
0.00001°
Longitude
-135.19273°
Altitude
35,074.694 km
Speed
3.1 km/s
True Right ascension
05h 11m 46s
True Declination
0° 00' 00"
Sunlit
Object was in daylight at epoch
Visualization orbit readout
Latitude
-2.30513°
Longitude
75.73424°
Altitude
34,871.035 km
Speed
3.115 km/s
Apparent Right ascension
19h 06m 43s
Apparent Declination
-8° 54' 28"
Sunlit
Object is in daylight
Visualization observer readout
Local Sidereal Time
20:21:44
Azimuth
203.831° SW
Elevation
38.181°
Doppler factor
1
Orbital elements
Apogee altitude
35,335.525 km
Perigee altitude
34,759.057 km
Semi-major axis
41,425.428 km
Eccentricity
0.00696
Inclination
4.4571°
RAAN
78.1258°
Arg. of periapsis
263.8686°
True anomaly
Unknown
Mean anomaly
95.142°
Eccentric anomaly
Unknown
Mean motion
0.25742 °/min
Orbital period
1,398.49 mins
BSTAR
0
Loading historical data...
44904 neighbors
Loading maneuver chart data...
Loading SW <> Apogee altitude chart data...
Loading historical data...
Loading historical data...
Loading historical data...
Loading historical data...
Loading historical data...
Loading historical data...
Loading historical data...
Other satellites on launch #95 in the year 2019 (2019-12-24 UTC)

BLOCK DM-SL R/B Visibility forecast

Observer location: undefined°, undefined°

Span
Click to sort rows by Start time (UTC) header in descending order
Start Az.
Max El. time (UTC)
Max El. Az.
Max El.
End time (UTC)
End Az.
1440 mins2025-07-01 08:43:34.101Z203.822° SW2025-07-02 00:21:34.101Z196.305° SSW36.442°2025-07-02 08:43:34.101Z189.85° SSW
|